Location: Peterborough
(44.3091°N, 78.3197°W)
Time: 06:42:14
(UTC-04:00)

Vanguard 1 Rocket - Pass Details

Date: 31 March 2023
Orbit: 655 x 4220 km, 34.3° (Epoch: 04 June)

Event Time Altitude Azimuth Distance (km) Brightness Sun altitude
Rises 17:47:51 0° 166° (SSE) 7,769 12.1 18.9°
Reaches altitude 10° 18:00:52 10° 138° (SE) 7,326 11.7 16.7°
Maximum altitude 18:06:31 11° 125° (SE) 7,309 11.6 15.7°
Drops below altitude 10° 18:12:11 10° 112° (ESE) 7,401 11.6 14.7°
Sets 18:25:09 0° 85° (E) 8,018 11.5 12.4°
